Miscellaneous Local Product
Issued by NWS North Platte, NE

Home | Current Version | Previous Version | Text Only | Print | Product List | Glossary On
Versions: 1 2 3 4 5 6 7 8 9 10 11 12 13 14 15 16 17 18 19 20 21 22 23 24 25 26 27 28 29 30 31 32 33 34 35 36 37 38 39 40 41 42 43 44 45 46 47 48 49 50
000
AXUS43 KLBF 212310
MISLBF


WESTERN AND NORTH CENTRAL NEBRASKA HOURLY WEATHER ROUNDUP
NATIONAL WEATHER SERVICE NORTH PLATTE NE
600 PM CDT TUE OCT 21 2014

***STATIONS NOT REPORTING VARIABLES SUCH AS SKY/WEATHER OR
PRESSURE ARE PROVIDED BY THE NEBRASKA DEPARTMENT OF
ROADS...RAWS...AND APRS NETWORKS...AND ARE NOT UNDER
NATIONAL WEATHER SERVICE QUALITY CONTROL***

...OBSERVATIONS IN AND NEAR THE EASTERN PANHANDLE OF NEBRASKA...

CITY           SKY/WX    TMP DP  RH WIND       PRES   REMARKS
PINE RIDGE     PTCLDY    76  47  35 S15       29.79F
CHADRON        CLEAR     75  45  34 S17       29.77S
ALLIANCE       PTCLDY    69  45  41 S10       29.85F
SIDNEY         SUNNY     75  45  34 S6        29.88S
WHITECLAY        N/A     75  46  35 S13         N/A
RUSHVILLE        N/A     78  38  23 S20         N/A
CRESCENT LAKE    N/A     75  50  41 S9G20       N/A
LISCO            N/A     82  34  18 S7          N/A
BIG SPRINGS      N/A     81  51  34 S13         N/A
LEWELLEN         N/A     86  48  26 S17         N/A
$$

...OBSERVATIONS IN NORTH CENTRAL NEBRASKA...

CITY           SKY/WX    TMP DP  RH WIND       PRES   REMARKS
VALENTINE      CLEAR     75  51  43 S18       29.85S
THEDFORD       CLEAR     76  55  47 S17G24    29.89S
AINSWORTH      CLEAR     72  47  41 S17G29    29.88S
O`NEILL        CLEAR     74  37  26 S15G21    29.93S
ORD            CLEAR     73  51  46 S14G22    29.93S
BROKEN BOW     CLEAR     74  54  49 S17       29.92F
BROWNLEE         N/A     77  52  41 S22         N/A
SPRINGVIEW       N/A     76  46  33 S8G17       N/A
BREWSTER         N/A     78  58  50 S21         N/A
ROSE             N/A     78  55  44 E20         N/A
NEWPORT          N/A     75  40  27 S15         N/A
SARGENT          N/A     73  54  51 SE3G12      N/A
COMSTOCK         N/A     78  54  43 S12         N/A
CHAMBERS         N/A     69  38  31 S3G13       N/A
$$

...OBSERVATIONS IN SOUTHWEST NEBRASKA AND FAR NORTHEAST COLORADO...

CITY           SKY/WX    TMP DP  RH WIND       PRES   REMARKS
WRAY           FAIR      80  38  22 S16G23    29.89S
HOLYOKE        FAIR      79  39  24 S14G24    29.87F
IMPERIAL       CLEAR     77  51  40 S20G26    29.88F
OGALLALA       CLEAR     79  51  37 S15G22    29.86F
NORTH PLATTE   CLEAR     76  53  44 S12       29.89S
MCCOOK         CLEAR     77  54  44 S18G25    29.92S
LEXINGTON      CLEAR     75  56  51 S15G21    29.93S
PAXTON           N/A     80  51  35 S17         N/A
SUTHERLAND       N/A     80  51  35 S15         N/A
BRADY            N/A     75  56  52 CALM        N/A
GOTHENBURG       N/A     76  52  43 S12         N/A
CALLAWAY         N/A     74  58  57 S20         N/A
$$

...SOME WEATHER OBSERVATIONS FROM AROUND THE REGION...

CITY           SKY/WX    TMP DP  RH WIND       PRES   REMARKS
DENVER         PTSUNNY   71  38  29 S23G31    29.90F
LARAMIE        CLOUDY    56  36  47 SW14      30.02F
CHEYENNE       LGT RAIN  63  39  41 W23       29.98S
SCOTTSBLUFF    CLOUDY    72  43  35 SE7       29.85S
RAPID CITY     CLEAR     77  45  32 S15       29.72F
PIERRE         CLEAR     79  43  27 S20G30    29.76R
WINNER         FAIR      77  32  19 S20       29.83S
SIOUX FALLS    CLEAR     70  44  39 SE13      29.97S
OMAHA          CLEAR     69  41  36 SE10      30.03S
GRAND ISLAND   CLEAR     74  50  42 S13       29.97F
KANSAS CITY    CLEAR     68  45  43 SE8       30.07S
WICHITA        PTCLDY    79  58  48 S9        30.00F
HAYS           CLEAR     79  55  44 S14       29.96S
LIBERAL        MOSUNNY   77  48  36 S17       30.01S
GOODLAND       SUNNY     77  44  30 S20G29    29.92F
$$



USA.gov is the U.S. government's official web portal to all federal, state and local government web resources and services.